Weather History for Alexandria, MN

Change the Weather History Date:

Friday, February 1, 2013

  Actual Average Record
Temperature  
Mean Temperature -9 °F -  
Max Temperature 0 °F 16 °F 42 °F (1993)
Min Temperature -18 °F -2 °F -34 °F (1951)
Degree Days  
Heating Degree Days 74    
Moisture  
Dew Point -12 °F    
Average Humidity 74    
Maximum Humidity 79    
Minimum Humidity 68    
Precipitation  
Precipitation 0.00 in - - ()
Sea Level Pressure  
Sea Level Pressure 30.13 in    
Wind  
Wind Speed 7 mph (SSE)    
Max Wind Speed 12 mph    
Max Gust Speed -    
Visibility 6 miles    
Events Snow    
Averages and records for this station are not official NWS values.
T = Trace of Precipitation, MM = Missing Value Source: NWS Daily Summary

Daily Weather History Graph

Daily Weather History Graph

Search for Another Location

Airport:

Trip Planner

Search our weather history database for the weather conditions in past years. The results will help you decide how hot, cold, wet, or windy it might be!

Date:

Astronomy

Feb. 01, 2013 Rise Set
Actual Time 7:43 AM CST 5:27 PM CST
Civil Twilight 7:11 AM CST 5:59 PM CST
Nautical Twilight 6:35 AM CST 6:35 PM CST
Astronomical Twilight 6:00 AM CST 7:10 PM CST
Moon 11:59 PM CST (2/1) 9:55 AM CST (2/1)
Length of Visible Light 10h 48m
Length of Day
9h 44m
Waning Gibbous, 70% of the Moon is Illuminated
Feb 1
Waning Gibbous
Feb 3
Last Quarter
Feb 10
New
Feb 17
First Quarter
Feb 25
Full

Hourly Weather History & Observations

Time (CST) Temp. Windchill Dew Point Humidity Pressure Visibility Wind Dir Wind Speed Gust Speed Precip Events Conditions
12:53 AM -16.1 °F -33.7 °F -22.0 °F 74% 30.36 in 10.0 mi NW 8.1 mph - N/A   Clear
1:53 AM -16.1 °F -28.6 °F -22.0 °F 74% 30.35 in 10.0 mi WNW 4.6 mph - N/A   Clear
2:53 AM -17.0 °F -34.8 °F -23.1 °F 74% 30.36 in 10.0 mi West 8.1 mph - N/A   Clear
3:53 AM -18.0 °F -33.0 °F -23.1 °F 78% 30.37 in 10.0 mi WSW 5.8 mph - N/A   Clear
4:53 AM -18.0 °F -28.5 °F -23.1 °F 78% 30.36 in 10.0 mi West 3.5 mph - N/A   Clear
5:53 AM -18.0 °F -34.7 °F -24.0 °F 74% 30.35 in 10.0 mi WSW 6.9 mph - N/A   Clear
6:53 AM -18.0 °F -28.5 °F -23.1 °F 78% 30.34 in 10.0 mi West 3.5 mph - N/A   Clear
7:53 AM -18.0 °F -28.5 °F -23.1 °F 78% 30.33 in 10.0 mi SW 3.5 mph - N/A   Clear
8:53 AM -16.1 °F - -20.9 °F 79% 30.31 in 10.0 mi Calm Calm - N/A   Clear
9:53 AM -13.0 °F -22.7 °F -18.9 °F 75% 30.30 in 10.0 mi SW 3.5 mph - N/A   Clear
10:53 AM -9.9 °F -24.9 °F -18.0 °F 68% 30.28 in 10.0 mi SSW 6.9 mph - N/A   Mostly Cloudy
11:53 AM -7.1 °F -23.9 °F -15.0 °F 68% 30.26 in 10.0 mi SSW 9.2 mph - N/A   Overcast
12:53 PM -6.0 °F -22.6 °F -14.1 °F 68% 30.22 in 4.0 mi South 9.2 mph - 0.00 in   Haze
1:04 PM -5.8 °F -22.4 °F -11.2 °F 77% 30.07 in 2.5 mi South 9.2 mph - 0.00 in Snow Light Snow
1:25 PM -4.0 °F -19.0 °F -11.2 °F 71% 30.06 in 1.8 mi South 8.1 mph - 0.00 in Snow Light Snow
1:32 PM -4.0 °F -17.8 °F -11.2 °F 71% 30.05 in 2.5 mi South 6.9 mph - 0.00 in Snow Light Snow
1:42 PM -4.0 °F -17.8 °F -11.2 °F 71% 30.05 in 5.0 mi SSE 6.9 mph - 0.00 in Snow Light Snow
1:53 PM -2.9 °F -18.8 °F -9.9 °F 72% 30.19 in 1.8 mi South 9.2 mph - 0.00 in Snow Light Snow
2:02 PM -2.2 °F -18.0 °F -9.4 °F 71% 30.04 in 2.5 mi SSE 9.2 mph - 0.00 in Snow Light Snow
2:13 PM -2.2 °F -18.0 °F -9.4 °F 71% 30.03 in 1.5 mi SSE 9.2 mph - 0.00 in Snow Light Snow
2:23 PM -2.2 °F -18.0 °F -9.4 °F 71% 30.03 in 2.5 mi SSE 9.2 mph - 0.00 in Snow Light Snow
2:36 PM -2.2 °F -18.0 °F -9.4 °F 71% 30.02 in 1.5 mi SSE 9.2 mph - 0.00 in Snow Light Snow
2:46 PM -2.2 °F -18.9 °F -9.4 °F 71% 30.02 in 2.0 mi SSE 10.4 mph - 0.00 in Snow Light Snow
2:53 PM -2.0 °F -17.7 °F -9.0 °F 72% 30.17 in 1.5 mi SSE 9.2 mph - 0.00 in Snow Light Snow
2:59 PM -2.2 °F -18.0 °F -9.4 °F 71% 30.02 in 2.0 mi SE 9.2 mph - 0.00 in Snow Light Snow
3:16 PM -0.4 °F -15.7 °F -7.6 °F 72% 30.00 in 1.8 mi SE 9.2 mph - 0.00 in Snow Light Snow
3:23 PM -2.2 °F -18.9 °F -7.6 °F 78% 30.00 in 2.5 mi SE 10.4 mph - 0.00 in Snow Light Snow
3:30 PM -0.4 °F -15.7 °F -7.6 °F 72% 30.00 in 3.0 mi SE 9.2 mph - 0.00 in Snow Light Snow
3:40 PM -0.4 °F -16.7 °F -7.6 °F 72% 30.00 in 2.5 mi SSE 10.4 mph - 0.00 in Snow Light Snow
3:53 PM -0.9 °F -17.4 °F -8.0 °F 72% 30.15 in 2.0 mi SSE 10.4 mph - 0.00 in Snow Light Snow
4:31 PM -0.4 °F -16.7 °F -7.6 °F 72% 29.99 in 1.8 mi ESE 10.4 mph - 0.00 in Snow Light Snow
4:41 PM -0.4 °F -16.7 °F -7.6 °F 72% 29.98 in 1.0 mi SE 10.4 mph - 0.00 in Snow Light Snow
4:53 PM -0.9 °F -18.3 °F -8.0 °F 72% 30.12 in 2.0 mi SE 11.5 mph - 0.00 in Snow Light Snow
5:09 PM -0.4 °F -15.7 °F -7.6 °F 72% 29.98 in 2.0 mi SE 9.2 mph - 0.00 in Snow Light Snow
5:15 PM -0.4 °F -16.7 °F -7.6 °F 72% 29.98 in 1.8 mi SE 10.4 mph - 0.00 in Snow Light Snow
5:26 PM -2.2 °F -18.9 °F -7.6 °F 78% 29.98 in 1.0 mi SE 10.4 mph - 0.00 in Snow Light Snow
5:42 PM -0.4 °F -13.4 °F -7.6 °F 72% 29.99 in 2.0 mi SE 6.9 mph - 0.00 in Snow Light Snow
5:50 PM -2.2 °F -15.6 °F -7.6 °F 78% 30.00 in 4.0 mi SE 6.9 mph - 0.00 in Snow Light Snow
5:53 PM -0.9 °F -12.7 °F -7.1 °F 75% 30.15 in 4.0 mi ESE 5.8 mph - 0.00 in   Haze
6:53 PM -0.9 °F -12.7 °F -6.0 °F 79% 30.15 in 6.0 mi SE 5.8 mph - N/A   Haze
7:53 PM -0.9 °F -12.7 °F -6.0 °F 79% 30.14 in 9.0 mi ESE 5.8 mph - N/A   Overcast
8:53 PM -0.9 °F -14.1 °F -6.0 °F 79% 30.13 in 10.0 mi East 6.9 mph - N/A   Overcast
9:53 PM -0.9 °F -11.0 °F -6.0 °F 79% 30.14 in 7.0 mi ESE 4.6 mph - 0.00 in   Overcast
10:12 PM -0.4 °F -8.3 °F -5.8 °F 78% 30.01 in 8.0 mi East 3.5 mph - N/A   Overcast
10:53 PM -0.0 °F - -7.1 °F 72% 30.14 in 10.0 mi Calm Calm - N/A   Overcast
11:12 PM -0.4 °F - -5.8 °F 78% 30.02 in 10.0 mi Calm Calm - N/A   Overcast
11:43 PM -0.4 °F - -7.6 °F 72% 30.03 in 10.0 mi Calm Calm - N/A   Scattered Clouds
11:53 PM -2.0 °F -10.1 °F -7.1 °F 79% 30.17 in 10.0 mi North 3.5 mph - N/A   Scattered Clouds